Location: Valencia
(39.4670°N, 0.3670°W)
Time: 18:17:36
(UTC+02:00)

ISS - Pass Details

Date: 07 August 2017
Orbit: 401 x 408 km, 51.6° (Epoch: 19 August)

Event Time Altitude Azimuth Distance (km) Brightness Sun altitude
Rises 21:30:31 0° 315° (NW) 2,317 1.7 -5.0°
Reaches altitude 10° 21:33:26 10° 344° (NNW) 1,455 -0.3 -5.5°
Maximum altitude 21:35:09 14° 16° (NNE) 1,259 -1.2 -5.8°
Drops below altitude 10° 21:36:53 10° 48° (NE) 1,453 -1.2 -6.1°
Enters shadow 21:39:20 - 73° (ENE) 2,156 -0.6 -6.5°
